Probability
58 32 0 0 0 0 0 0 0 0 0 0 0 0 0 0 0 0 0 3 100 100 100 84 100 94 97 100 100 100 97 87 97 97 87 65 29 45 61 58 74 97 100
0 0 0 0 0 0 0 0 0 0 0 0 0 0 0 0 0 0 0 0 100 100 100 100 100 100 100 100 100 100 100 100 100 90 97 81 55 26 13 19 45 74 97
0 0 0 0 0 0 0 0 0 0 0 0 0 0 0 0 0 0 0 0 0 74 100 100 100 100 100 100 100 100 100 100 100 97 97 97 87 68 19 10 0 6 65
0 0 0 0 0 0 0 0 0 0 0 0 0 0 0 0 0 0 0 0 0 0 3 71 100 100 100 100 100 100 100 100 97 94 94 97 87 87 58 23 0 0 3
0 0 0 0 0 0 0 0 0 0 0 0 0 0 0 0 0 0 0 0 0 0 0 0 52 94 100 100 100 100 100 100 97 94 87 90 90 87 16 13 0 0 0
0 0 0 0 0 0 0 0 0 0 0 0 0 0 0 0 0 0 0 0 0 0 0 0 0 0 42 68 65 87 87 48 77 100 90 90 100 94 29 6 0 0 0
0 0 0 0 0 0 0 0 0 0 0 0 0 0 0 0 0 0 0 0 0 0 0 0 0 0 3 10 0 29 29 6 48 97 100 97 97 90 55 3 0 0 0
0 0 0 0 0 0 0 0 0 0 0 0 0 0 0 0 0 0 0 0 0 0 0 0 0 0 0 0 0 0 10 52 81 77 97 97 90 32 13 3 0 0 0
0 0 0 0 0 0 0 0 0 0 0 0 0 0 0 0 0 0 0 0 0 0 0 0 0 0 0 0 0 0 0 0 26 26 84 58 48 16 3 0 0 0 0
0 0 0 0 0 0 0 0 0 0 0 0 0 0 0 0 0 0 0 0 0 0 0 0 0 0 0 0 0 0 0 0 0 3 3 10 23 16 10 0 0 0 0
0 0 0 0 0 0 0 0 0 0 0 0 0 0 0 0 0 0 0 0 0 0 0 0 0 0 0 0 0 0 0 0 0 0 3 6 3 3 0 0 0 0 0
0 0 0 0 0 0 0 0 0 0 0 0 0 0 0 0 0 0 0 0 0 0 0 0 0 0 0 0 0 0 0 0 0 0 0 0 0 0 0 0 0 0 0
0 0 0 0 0 0 0 0 0 0 0 0 0 0 0 0 0 0 0 0 0 0 0 0 0 0 0 0 0 0 0 0 0 0 0 0 0 0 0 0 0 0 0
0 0 0 0 0 0 0 0 0 0 0 0 0 0 0 0 0 0 0 0 0 0 0 0 0 0 0 0 0 0 0 0 0 0 0 0 0 0 0 0 0 0 0
0 0 0 0 0 0 0 0 0 0 0 0 0 0 0 0 0 0 0 0 0 0 0 0 0 0 0 0 0 0 0 0 0 0 0 0 0 0 0 0 0 0 0
0 0 0 0 0 0 0 0 0 0 0 0 0 0 0 0 0 0 0 0 0 0 0 0 0 0 0 0 0 0 0 0 0 0 0 0 0 0 0 0 0 0 0
0 0 0 0 0 0 0 0 0 0 0 0 0 0 0 0 0 0 0 0 0 0 0 0 0 0 0 0 0 0 0 0 0 0 0 0 0 0 0 0 0 0 0
0 0 0 0 0 0 0 0 0 0 0 0 0 0 0 0 0 0 0 0 0 0 0 0 0 0 0 0 0 0 0 0 0 0 0 0 0 0 0 0 0 0 0
0 0 0 0 0 0 0 0 0 0 0 0 0 0 0 0 0 0 0 0 0 0 0 0 0 0 0 0 0 0 0 0 0 0 0 0 0 0 0 0 0 0 0
0 0 0 0 0 0 0 0 0 0 0 0 0 0 0 0 0 0 0 0 0 0 0 0 0 0 0 0 0 0 0 0 0 0 0 0 0 0 0 0 0 0 0
0 0 0 0 0 0 0 0 0 0 0 0 0 0 0 0 0 0 0 0 0 0 0 0 0 0 0 0 0 0 0 0 0 0 0 0 0 0 0 0 0 0 0
0 0 0 0 0 0 0 0 0 0 0 0 0 0 0 0 0 0 0 0 0 0 0 0 0 0 0 0 0 0 0 0 0 0 0 0 0 0 0 0 0 0 0
0 0 0 0 0 0 0 0 0 0 0 0 0 0 0 0 0 0 0 0 0 0 0 0 0 0 0 0 0 0 0 0 0 0 0 0 0 0 0 0 0 0 0
0 0 0 0 0 0 0 0 0 0 0 0 0 0 0 0 0 0 0 0 0 0 0 0 0 0 0 0 0 0 0 0 0 0 0 0 0 0 0 0 0 0 0
0 0 0 0 0 0 0 0 0 0 0 0 0 0 0 0 0 0 0 0 0 0 0 0 0 0 0 0 0 0 0 0 0 0 0 0 0 0 0 0 0 0 0
0 0 0 0 0 0 0 0 0 0 0 0 0 0 0 0 0 0 0 0 0 0 0 0 0 0 0 0 0 0 0 0 0 0 0 0 0 0 0 0 0 0 0
Height
5837 5834 5831 5829 5827 5825 5824 5823 5820 5818 5815 5813 5811 5809 5808 5806 5804 5803 5801 5799 5797 5795 5793 5790 5789 5788 5787 5788 5789 5791 5792 5793 5794 5796 5797 5799 5802 5804 5805 5805 5807 5808 5811
5830 5829 5826 5823 5822 5819 5816 5813 5811 5810 5808 5805 5802 5799 5797 5794 5792 5791 5789 5786 5785 5784 5782 5780 5777 5776 5776 5775 5775 5776 5777 5778 5780 5782 5784 5787 5789 5791 5792 5794 5796 5797 5800
5822 5819 5816 5813 5810 5807 5805 5802 5799 5797 5794 5792 5789 5786 5784 5782 5779 5777 5774 5772 5771 5770 5769 5768 5766 5763 5761 5761 5762 5763 5763 5764 5766 5768 5770 5772 5775 5778 5780 5781 5783 5785 5787
5815 5811 5809 5806 5801 5798 5795 5791 5787 5783 5780 5777 5776 5773 5770 5768 5765 5762 5759 5756 5754 5753 5752 5751 5749 5747 5746 5745 5746 5747 5749 5750 5751 5752 5755 5757 5760 5763 5765 5767 5770 5773 5776
5804 5802 5799 5796 5792 5788 5784 5780 5776 5772 5768 5765 5764 5761 5758 5754 5751 5748 5744 5740 5738 5736 5734 5732 5729 5727 5725 5727 5730 5731 5731 5733 5735 5737 5740 5743 5746 5749 5751 5753 5756 5759 5763
5795 5792 5788 5785 5781 5776 5772 5768 5764 5760 5755 5752 5750 5747 5744 5739 5735 5733 5729 5724 5720 5716 5713 5711 5709 5706 5705 5708 5709 5709 5711 5714 5717 5719 5722 5726 5729 5732 5734 5738 5742 5745 5749
5787 5783 5779 5774 5770 5766 5761 5755 5751 5746 5740 5735 5731 5728 5725 5721 5719 5715 5709 5703 5698 5693 5688 5684 5682 5682 5683 5688 5690 5690 5693 5697 5697 5696 5699 5704 5710 5713 5717 5721 5724 5728 5733
5777 5772 5768 5763 5758 5752 5746 5739 5734 5729 5723 5716 5710 5705 5702 5702 5700 5695 5685 5678 5673 5667 5662 5657 5654 5655 5657 5662 5666 5669 5671 5676 5678 5678 5680 5682 5689 5692 5696 5700 5704 5710 5715
5769 5763 5756 5750 5743 5737 5730 5722 5715 5709 5702 5694 5685 5678 5675 5674 5674 5671 5663 5659 5653 5647 5640 5635 5632 5631 5633 5637 5642 5647 5648 5654 5657 5658 5661 5662 5665 5667 5672 5678 5684 5689 5696
5755 5749 5743 5736 5728 5720 5713 5705 5697 5689 5682 5673 5666 5660 5655 5652 5651 5650 5646 5644 5639 5632 5623 5617 5615 5613 5612 5617 5621 5624 5629 5634 5637 5640 5640 5643 5648 5649 5652 5659 5664 5669 5674
5742 5735 5728 5720 5712 5704 5696 5689 5682 5674 5665 5657 5652 5647 5643 5640 5637 5635 5630 5629 5626 5621 5613 5605 5601 5600 5601 5605 5607 5609 5614 5619 5623 5624 5626 5628 5630 5630 5633 5638 5642 5647 5654
5728 5720 5711 5703 5696 5690 5684 5678 5672 5663 5654 5647 5641 5636 5631 5627 5623 5620 5616 5613 5612 5609 5603 5598 5596 5595 5596 5596 5597 5599 5602 5606 5608 5610 5612 5612 5612 5611 5613 5617 5623 5629 5634
5715 5708 5699 5691 5685 5679 5674 5667 5661 5653 5646 5640 5633 5627 5621 5616 5611 5607 5603 5600 5599 5599 5595 5591 5589 5587 5587 5587 5588 5590 5592 5594 5595 5596 5597 5597 5598 5596 5595 5598 5604 5612 5618
5703 5696 5688 5682 5675 5669 5663 5657 5651 5644 5637 5630 5624 5618 5612 5607 5602 5596 5592 5588 5586 5586 5586 5582 5579 5578 5578 5579 5580 5580 5582 5584 5586 5585 5585 5583 5582 5581 5582 5584 5589 5596 5601
5690 5683 5678 5672 5666 5660 5654 5648 5641 5634 5627 5620 5613 5607 5602 5598 5593 5588 5584 5579 5576 5575 5577 5573 5570 5569 5570 5571 5571 5571 5573 5575 5575 5575 5573 5570 5567 5567 5569 5574 5578 5583 5586
5677 5673 5667 5662 5657 5651 5645 5638 5631 5623 5616 5608 5601 5595 5590 5586 5583 5578 5576 5572 5568 5563 5565 5563 5560 5560 5561 5562 5562 5563 5566 5566 5566 5564 5561 5557 5554 5555 5558 5561 5565 5569 5574
5671 5665 5659 5653 5648 5642 5635 5627 5619 5611 5603 5594 5587 5581 5576 5573 5570 5568 5566 5563 5560 5555 5553 5554 5553 5553 5554 5554 5554 5556 5557 5558 5557 5554 5552 5549 5546 5545 5548 5549 5550 5553 5557
5662 5657 5651 5645 5638 5631 5624 5615 5606 5598 5590 5581 5574 5569 5564 5559 5557 5556 5555 5554 5551 5548 5546 5546 5545 5547 5548 5548 5549 5549 5550 5550 5548 5547 5545 5543 5540 5538 5537 5535 5534 5536 5542
5653 5647 5641 5635 5627 5619 5611 5602 5594 5585 5577 5570 5563 5558 5552 5546 5544 5543 5543 5543 5543 5541 5540 5540 5540 5541 5542 5543 5544 5543 5543 5543 5542 5540 5539 5536 5532 5528 5525 5521 5521 5522 5526
5644 5638 5631 5624 5616 5608 5598 5588 5580 5572 5565 5559 5553 5547 5542 5536 5533 5533 5533 5534 5535 5535 5534 5535 5535 5536 5538 5539 5539 5538 5538 5537 5536 5535 5533 5529 5523 5517 5510 5504 5504 5507 5512
5635 5627 5620 5612 5603 5594 5583 5574 5567 5559 5553 5548 5543 5537 5532 5528 5525 5524 5525 5526 5527 5528 5529 5529 5531 5532 5533 5534 5535 5535 5533 5533 5532 5531 5528 5523 5517 5509 5499 5491 5487 5494 5502
5624 5615 5606 5598 5589 5580 5571 5562 5555 5549 5542 5538 5533 5528 5524 5521 5518 5518 5518 5519 5521 5522 5524 5526 5527 5527 5528 5529 5531 5530 5529 5529 5529 5528 5525 5520 5515 5508 5499 5491 5487 5490 5498
5613 5604 5594 5585 5576 5567 5559 5552 5544 5537 5531 5528 5523 5520 5516 5513 5512 5512 5512 5513 5515 5517 5519 5521 5522 5523 5524 5525 5526 5526 5526 5526 5527 5526 5522 5518 5514 5511 5506 5499 5496 5498 5501
5601 5591 5582 5573 5564 5555 5547 5540 5531 5525 5521 5517 5514 5512 5509 5506 5505 5506 5506 5508 5510 5512 5514 5516 5519 5520 5521 5522 5523 5523 5523 5525 5526 5525 5523 5519 5517 5514 5512 5507 5504 5503 5504
5589 5580 5570 5561 5552 5543 5535 5528 5520 5514 5510 5507 5506 5504 5502 5500 5499 5500 5501 5504 5506 5509 5511 5513 5515 5516 5518 5520 5521 5522 5524 5525 5525 5525 5523 5521 5520 5517 5516 5515 5512 5512 5514
5579 5569 5559 5548 5540 5532 5525 5518 5511 5506 5502 5500 5499 5497 5495 5495 5494 5495 5497 5500 5504 5507 5509 5510 5512 5513 5515 5518 5520 5523 5525 5526 5526 5525 5525 5524 5524 5523 5519 5519 5520 5525 5528
Wind_Speed
27 31 30 28 28 30 32 33 34 38 40 41 40 40 40 40 40 40 41 41 42 43 44 45 47 47 45 44 45 46 47 47 47 48 50 51 51 51 50 49 49 46 42
31 32 29 31 34 36 39 38 40 41 42 45 45 44 44 44 45 46 46 47 47 47 47 48 49 50 49 48 48 48 50 52 53 54 54 55 55 54 52 51 50 47 45
32 34 35 39 41 41 39 43 47 49 50 50 50 49 49 51 52 50 49 50 49 49 49 50 51 54 54 53 52 51 52 53 55 57 58 59 60 58 55 53 51 49 47
36 36 36 39 40 41 42 44 48 50 51 55 57 54 54 56 57 56 54 55 55 54 54 55 57 57 58 58 57 55 53 53 54 57 59 61 62 61 59 57 55 52 49
40 40 44 45 45 44 43 45 50 43 46 51 55 56 57 60 59 59 60 63 64 64 63 62 63 63 62 61 58 57 58 58 59 59 59 60 61 60 59 59 59 56 53
41 43 44 45 47 49 50 52 52 55 58 59 59 57 58 60 61 63 66 70 72 74 74 73 72 71 71 68 65 65 65 64 64 64 63 62 63 63 63 62 59 59 57
41 43 46 50 50 51 53 56 59 59 62 68 68 66 65 65 66 69 73 77 80 83 85 85 84 82 79 75 73 72 69 67 68 70 67 63 63 65 66 67 66 64 61
44 47 50 52 55 56 58 61 63 64 68 71 74 76 75 75 74 73 74 74 75 78 81 83 83 83 81 79 77 75 73 71 68 70 67 66 64 62 65 71 71 72 69
48 51 55 57 59 61 62 66 69 72 73 76 78 80 78 76 69 60 55 54 57 60 64 66 67 71 73 74 75 71 67 68 65 65 66 69 60 54 60 67 66 72 75
55 57 59 61 64 67 69 68 65 63 68 67 66 66 64 59 52 52 54 53 54 53 51 52 56 59 58 57 53 48 48 49 51 54 57 59 63 67 65 64 68 73 75
59 61 64 66 69 67 59 53 55 58 60 52 51 51 49 50 52 52 53 53 50 46 43 38 37 39 38 40 40 41 45 46 45 44 50 55 57 61 63 64 64 66 74
63 65 65 67 60 50 45 46 50 52 51 48 48 48 48 47 47 49 51 50 44 39 38 38 37 35 36 39 41 42 43 42 38 39 43 45 48 51 56 64 65 64 65
63 62 63 54 46 42 42 46 48 47 45 45 45 46 46 45 48 49 50 49 44 36 33 33 34 35 36 36 37 39 41 41 41 44 45 47 49 51 53 54 61 65 64
60 57 50 43 40 41 42 44 45 44 45 46 47 46 43 43 43 41 40 41 40 35 31 32 33 33 33 33 35 37 39 37 37 41 44 45 46 46 45 45 47 53 61
52 46 39 40 40 39 42 44 45 46 47 48 49 48 45 40 36 36 36 34 33 31 26 30 34 34 33 30 30 31 27 29 33 37 39 40 42 40 38 38 40 42 45
36 35 37 39 38 41 44 47 49 50 51 52 51 49 47 43 40 39 35 31 31 30 21 27 33 33 32 29 30 30 27 27 26 28 34 34 31 33 33 34 36 42 46
37 37 37 37 40 44 47 49 51 51 52 53 51 48 47 46 43 41 36 31 30 29 21 20 27 29 29 29 31 30 26 24 25 25 26 26 24 24 29 34 38 42 45
38 37 37 40 43 47 49 51 51 50 50 50 46 44 43 42 41 39 37 33 30 28 21 16 21 23 25 27 26 23 19 22 25 23 21 22 20 21 27 33 37 41 47
38 38 40 44 47 50 51 51 50 48 47 46 42 41 41 38 36 34 35 32 28 24 19 16 18 20 21 19 16 16 19 21 22 19 20 23 25 28 33 37 39 41 43
39 41 44 48 51 51 51 49 47 46 45 42 39 38 38 34 31 29 28 26 23 20 17 15 17 19 18 14 12 15 18 17 14 15 20 24 28 30 31 33 38 40 38
42 45 48 52 53 52 49 48 45 45 43 38 36 35 34 30 27 24 23 21 19 16 15 14 15 18 18 15 13 12 13 12 11 13 18 20 22 22 23 17 21 32 32
45 50 53 54 53 49 46 45 44 42 40 35 33 32 30 29 24 22 19 18 16 15 15 13 14 16 17 16 14 13 11 11 9 10 12 17 19 21 14 9 7 21 29
48 52 54 53 49 47 45 42 41 41 37 34 31 28 26 26 21 19 16 15 13 14 15 15 11 9 12 13 13 11 7 6 5 5 11 17 13 11 12 10 15 18 17
51 52 51 50 48 46 43 41 41 39 35 30 28 26 23 24 19 16 15 13 10 11 10 9 10 10 10 9 8 7 7 6 4 3 9 10 7 7 11 14 16 18 20
50 51 50 50 47 42 40 40 37 33 29 25 24 24 22 23 16 14 14 12 9 9 9 9 10 12 13 9 8 9 7 5 1 3 5 5 5 8 8 12 26 29 32
51 52 51 49 44 39 39 36 28 25 22 21 21 21 19 18 14 12 13 12 10 9 8 10 9 8 10 12 12 9 7 6 3 3 4 4 3 7 13 18 26 36 42
Wind_Direction
313 317 315 307 299 297 297 295 291 288 281 275 271 270 270 272 273 273 270 267 265 267 269 271 271 271 270 268 266 264 264 262 259 256 256 258 258 258 257 258 258 259 258
309 306 302 298 293 286 281 280 282 286 279 272 271 272 273 275 278 278 274 270 267 266 265 265 267 267 265 264 265 264 262 262 260 258 256 256 256 256 255 254 255 255 256
309 306 301 300 301 298 292 287 285 286 286 278 270 269 273 279 283 281 276 274 272 270 269 266 265 266 265 264 263 262 262 262 261 260 258 256 256 257 256 255 254 253 253
308 306 302 300 297 294 290 288 291 287 285 281 274 272 276 282 284 283 283 281 278 277 276 275 273 270 266 263 262 263 265 265 262 260 258 256 254 254 255 255 254 252 251
308 307 304 299 297 296 292 284 288 281 285 283 280 282 282 281 281 283 284 282 282 281 279 277 275 273 272 270 266 265 266 267 265 264 262 260 258 256 255 254 253 252 250
306 306 303 301 298 296 295 293 293 284 284 288 290 286 280 278 280 281 281 280 279 278 277 275 273 271 269 268 269 268 269 271 270 268 265 262 261 259 257 255 254 253 251
305 302 299 298 296 294 292 292 294 291 287 289 287 283 281 280 282 284 284 283 281 278 276 275 273 272 270 267 267 268 271 272 271 270 268 262 259 259 256 254 252 252 250
305 301 299 298 297 297 295 293 292 290 287 285 284 284 285 286 287 288 286 284 282 279 275 272 271 269 268 267 268 271 273 271 269 267 264 264 267 256 251 249 249 247 247
304 303 302 301 300 298 296 295 295 294 293 291 289 289 288 287 288 288 290 293 296 293 285 277 272 270 269 268 268 269 269 266 262 260 261 265 258 250 254 248 244 245 244
306 305 305 303 301 299 300 299 299 299 301 298 293 291 292 291 288 288 287 291 297 300 295 283 274 270 268 267 265 261 257 257 257 259 259 258 252 253 257 252 246 245 242
306 306 306 304 303 304 303 303 305 306 309 307 300 297 295 292 290 287 286 288 289 291 291 287 276 267 260 259 261 260 261 263 261 259 258 258 257 255 254 250 245 244 241
307 307 305 305 305 304 304 307 309 310 312 310 307 304 301 298 295 292 290 289 289 287 283 278 274 270 266 262 261 261 261 262 260 264 264 262 260 260 257 250 245 243 240
305 304 303 304 303 303 305 307 307 308 311 310 307 304 302 299 297 295 292 288 284 283 282 277 270 265 263 262 262 262 262 266 271 271 269 264 262 264 261 250 242 242 241
301 302 303 301 301 303 306 306 306 308 311 309 304 301 299 299 299 298 297 291 284 278 272 270 269 265 265 265 262 259 262 265 268 268 268 268 266 262 259 248 239 242 242
299 301 302 302 304 306 307 306 307 309 311 312 305 298 294 292 292 297 302 300 291 283 269 259 260 263 264 262 260 263 265 267 273 272 272 272 268 256 250 248 242 239 240
299 300 302 303 305 308 309 309 308 309 312 312 309 299 292 285 284 290 295 299 299 295 275 254 256 259 262 260 260 263 268 271 273 272 270 274 267 250 242 245 248 246 239
303 303 305 306 309 311 312 310 309 310 312 311 307 299 292 286 281 281 284 291 299 298 288 255 246 252 257 265 266 270 268 265 266 266 278 277 266 251 248 254 253 247 241
302 304 306 309 312 313 313 310 310 311 312 311 306 301 298 288 280 275 275 282 292 295 290 255 243 247 252 261 267 271 262 265 263 264 278 281 272 264 260 261 255 245 238
302 306 308 311 312 313 312 310 309 310 312 310 304 304 303 293 280 275 273 277 283 288 281 257 252 251 258 270 268 261 259 261 263 268 282 285 280 276 275 266 259 252 242
305 307 309 311 312 313 311 308 307 307 309 308 305 305 305 301 285 277 273 272 273 278 271 257 254 250 260 264 260 256 263 263 272 282 288 288 288 292 289 273 257 247 242
307 310 311 311 313 312 309 309 308 306 306 307 307 305 304 302 289 280 272 267 264 265 262 258 249 248 254 255 251 260 273 262 277 293 301 307 326 333 319 295 251 225 218
312 313 313 314 313 311 310 309 308 304 301 305 306 306 301 302 292 285 276 261 252 254 256 256 255 250 252 253 250 259 263 254 273 296 318 340 357 1 4 24 164 182 191
315 314 314 315 313 311 310 308 305 301 297 298 301 305 300 302 292 283 273 259 245 250 255 260 245 250 253 247 248 250 247 238 238 318 342 351 12 23 29 67 124 143 150
318 317 317 316 315 313 311 309 306 303 298 292 296 302 298 303 288 271 262 247 236 244 242 230 237 256 250 253 240 206 182 192 212 327 340 358 54 84 57 84 111 129 131
320 320 320 317 316 315 313 313 311 307 299 291 294 299 294 296 280 259 246 225 219 219 227 226 250 256 241 227 181 163 164 179 160 36 358 359 73 104 102 99 113 113 127
323 323 322 321 322 322 320 319 318 309 298 292 295 298 291 287 268 245 225 200 197 200 223 237 244 229 207 187 163 157 168 158 118 69 62 40 78 94 90 110 118 118 124